User: anonymous   Login
Location: ????? ????
(37.9717°N, 23.4051°E)
Time: 10:59:08
(UTC+00:00)
Language:

SPOT 5 - Orbit

View from above orbital plane
View from above orbital plane
View from above satellite
View from above satellite

Ground track
Ground track

The orbit data is extracted from the following two-line orbital elements,

1 27421U 02021A   24172.15584665  .00000491  00000-0  11588-3 0  9997
2 27421  98.0880 228.4448 0132735  13.8197 346.6577 14.53323419157212
Epoch (UTC): 20 June 2024 03:44:25
Eccentricity: 0.0132735
inclination: 98.0880°
perigee height: 620 km
apogee height: 809 km
right ascension of ascending node: 228.4448°
argument of perigee: 13.8197°
revolutions per day: 14.53323419
mean anomaly at epoch: 346.6577°
orbit number at epoch: 15721

The dashed part of the orbit path shows where the satellite is in the earth's shadow,  

DLR